GFSNGP_sfc_thetae_000.txt.gz
Theta_e
298 299 300 299 297 296 294 295 291 294 295 299 301 301 299 300 300 300 300 300 300 300 299 297 297 296 296 295 294 293 293 293 293 293 294 294 294 294 295 295 295 295 296 296
294 298 298 296 299 299 296 296 296 297 296 303 303 301 300 301 301 300 300 301 301 301 300 299 297 295 295 294 293 293 292 292 293 294 293 293 294 294 294 294 294 295 295 295
289 296 296 292 297 299 299 299 297 293 298 301 301 302 303 302 301 300 300 301 301 300 300 299 297 297 294 293 293 292 292 292 292 293 293 293 294 293 293 292 293 293 294 294
286 292 285 296 303 302 300 301 301 300 301 302 303 304 304 302 301 299 300 300 300 300 299 298 297 295 294 293 292 292 291 291 292 292 292 293 293 292 292 292 292 293 294 294
286 287 293 297 300 300 297 296 303 301 302 303 304 303 301 303 301 301 299 299 299 299 298 298 295 295 293 292 292 292 291 291 292 292 292 292 292 291 292 292 292 293 294 294
288 285 284 295 302 303 300 291 301 302 303 303 303 296 300 302 301 299 300 299 299 298 298 295 294 294 292 292 291 291 292 292 292 292 292 292 292 291 292 292 293 294 295 295
284 281 289 299 303 303 290 292 301 302 302 302 300 302 302 301 300 299 299 299 299 296 294 293 294 294 292 291 290 293 293 293 293 293 292 292 292 292 291 291 292 293 293 294
286 282 282 298 298 292 295 298 299 300 301 299 301 299 298 298 298 299 298 297 296 293 292 293 293 292 291 290 293 293 293 293 292 292 294 294 291 291 291 291 290 291 291 291
288 289 295 297 299 299 299 300 298 299 300 301 298 297 297 297 297 297 296 295 295 293 292 293 293 292 290 292 293 293 292 291 291 292 292 292 290 289 290 290 291 291 291 291
288 293 294 297 298 299 301 299 300 299 300 300 299 298 296 296 296 296 296 294 294 293 292 292 292 293 292 293 293 292 290 290 291 290 291 291 292 291 290 290 290 292 293 292
288 291 294 296 298 299 301 302 301 301 300 300 299 298 297 296 296 296 295 295 293 292 292 292 293 292 293 294 293 291 290 290 290 291 290 290 291 290 291 290 292 291 293 293
287 294 294 294 297 301 300 301 302 300 300 300 301 299 298 297 296 296 295 294 293 294 294 292 292 292 293 294 293 291 290 290 290 290 290 290 290 290 298 298 299 299 299 297
291 295 295 296 298 299 299 300 304 305 304 298 300 300 299 297 296 298 295 294 294 294 293 292 292 292 293 293 293 292 290 290 290 292 290 290 290 289 288 293 299 299 299 299
295 296 293 296 295 299 300 302 304 305 306 303 299 299 299 296 297 295 294 295 296 294 293 293 292 292 293 294 293 292 291 297 291 291 290 290 290 289 290 290 290 291 296 298
294 296 295 297 298 299 300 301 300 299 302 302 297 297 297 295 294 295 295 296 295 294 293 293 292 292 294 294 293 292 291 291 291 291 291 292 290 290 291 291 291 291 293 295
295 296 297 296 296 296 298 299 298 299 297 294 295 295 295 295 295 295 294 295 293 291 292 292 292 293 294 293 292 291 291 296 295 291 292 290 290 290 290 291 289 290 291 293
292 292 293 293 294 295 296 297 299 296 295 294 293 295 294 294 293 293 293 294 293 292 293 292 292 294 294 293 291 291 291 291 293 290 291 293 291 293 293 290 290 290 290 293
293 293 293 294 294 295 295 297 298 295 294 293 294 294 293 292 292 292 292 293 292 292 293 293 293 293 292 291 291 290 289 290 291 293 294 293 291 291 292 291 291 291 292 293
295 294 293 294 296 296 295 297 299 295 294 294 293 292 293 293 293 292 292 292 291 290 291 293 294 292 290 292 291 290 292 293 293 292 292 292 291 291 291 291 290 290 291 292
292 293 294 295 296 296 296 293 293 293 294 294 294 293 292 292 292 291 292 290 291 291 291 291 291 290 290 291 293 293 294 292 291 291 291 290 290 290 290 291 291 291 291 291
290 292 293 294 294 295 296 293 293 292 293 294 292 291 290 291 292 292 290 289 290 291 291 292 290 289 290 291 295 293 292 291 290 290 289 289 289 289 289 290 290 291 291 292
289 290 292 293 292 292 293 292 292 292 292 292 292 291 291 290 291 291 292 290 290 293 291 289 290 292 291 295 293 292 291 291 290 290 287 289 289 289 289 289 290 291 292 292
288 291 291 291 289 289 291 291 291 291 291 291 291 290 290 290 291 288 287 290 291 291 289 290 291 292 294 293 292 292 291 290 290 290 289 290 290 289 289 289 290 291 291 291
289 289 289 289 289 289 288 289 291 291 291 292 292 292 291 289 289 290 291 292 291 290 290 291 291 293 293 292 292 291 291 290 290 290 290 290 289 289 289 289 289 291 291 292
287 288 290 289 288 288 289 290 290 290 290 290 290 290 290 291 289 289 290 290 290 290 290 291 292 292 292 292 291 291 290 290 290 290 289 289 289 289 290 289 290 291 291 290
287 288 288 288 288 289 289 289 288 288 288 287 288 288 289 289 289 289 289 291 290 289 289 291 291 292 292 291 291 291 290 290 290 289 289 289 289 289 289 290 290 291 291 289
289 289 288 288 289 289 289 289 288 288 288 288 287 288 288 288 288 288 290 290 290 289 290 291 291 291 291 292 291 291 290 290 290 290 289 289 290 290 289 290 290 290 291 291

GFSNGP_sfc_thetae_003.txt.gz
Theta_e
292 292 294 295 295 294 292 293 289 292 292 296 298 296 295 296 296 296 297 299 299 298 297 296 296 296 295 295 294 294 292 291 291 291 292 292 292 292 292 293 293 293 293 294
284 290 290 288 293 294 295 295 294 295 294 298 300 298 297 295 297 297 298 299 300 300 298 296 296 295 295 294 294 293 291 291 292 292 292 291 291 292 292 292 291 292 292 293
280 288 286 282 290 295 297 297 296 291 297 299 300 301 302 300 296 297 298 299 300 300 299 298 297 295 294 294 293 291 291 291 291 291 291 291 292 291 291 290 290 291 291 292
281 284 277 288 300 300 298 300 300 299 300 299 301 303 302 301 299 298 300 299 300 300 299 298 295 295 294 293 292 291 290 290 290 290 290 291 290 290 290 290 290 290 291 291
282 282 286 290 296 294 293 292 299 299 301 299 301 301 301 303 300 299 298 298 300 300 298 296 295 294 293 291 291 290 289 289 290 290 290 290 290 289 290 290 290 290 291 291
284 280 277 288 295 300 297 289 297 296 295 295 299 294 300 301 300 298 298 297 297 297 297 295 293 293 292 290 290 289 290 291 291 290 290 290 290 289 289 290 290 291 291 291
282 281 284 292 295 298 286 287 295 296 296 295 293 299 304 304 298 297 297 297 297 297 295 293 292 292 291 289 289 291 292 292 291 291 290 290 290 289 289 289 289 289 290 291
280 279 277 297 297 291 294 295 296 295 295 295 297 297 298 299 297 297 296 297 296 294 293 292 292 292 290 289 291 292 292 291 290 290 292 293 289 288 288 288 287 288 289 289
283 283 291 292 293 300 300 297 296 296 297 299 298 297 295 294 295 296 295 294 294 293 291 291 291 292 289 290 291 291 290 290 290 291 290 290 288 288 287 287 288 288 289 289
284 288 290 292 295 296 298 298 298 301 301 303 298 298 295 294 295 294 293 292 292 292 291 289 290 291 290 291 292 290 289 288 289 288 289 289 289 289 287 287 287 289 289 289
283 287 289 291 295 297 297 298 300 302 303 303 301 300 297 295 294 293 293 293 293 292 291 291 291 291 291 291 292 290 289 288 288 289 288 288 288 288 288 288 290 288 289 290
281 288 288 290 294 295 295 296 298 299 300 304 305 303 301 295 295 294 293 293 293 293 293 292 291 291 291 293 292 291 289 288 288 288 288 288 288 288 295 298 299 300 300 297
288 292 292 293 294 295 295 296 298 298 300 300 305 304 302 297 294 296 294 293 293 293 293 293 292 291 292 293 292 291 289 289 288 291 288 288 288 287 287 290 297 298 298 299
292 291 289 291 291 295 295 296 298 300 300 301 305 304 305 301 296 294 293 294 294 294 293 292 291 291 292 293 293 292 290 296 290 289 288 288 288 288 288 287 287 289 295 297
291 292 292 293 294 294 296 296 296 297 298 300 300 300 301 299 296 294 294 295 295 294 293 293 292 292 294 295 293 291 291 290 289 289 289 290 289 288 288 288 288 289 289 293
292 292 292 291 292 294 294 295 293 294 295 296 298 297 298 297 296 295 295 295 293 292 292 292 292 293 295 293 292 291 291 294 293 289 289 289 289 289 288 290 291 291 289 289
290 289 289 289 289 291 292 294 295 295 295 296 295 295 295 294 294 292 293 294 293 292 293 292 292 295 294 293 291 291 290 289 292 288 288 289 292 293 290 288 290 290 289 291
292 291 291 291 291 290 291 293 294 294 294 296 295 294 293 293 292 291 292 293 292 292 292 293 294 293 292 292 291 290 289 289 289 289 293 293 291 292 291 290 291 290 289 291
290 290 290 290 291 291 292 292 294 295 294 295 293 293 293 293 292 292 292 291 291 290 291 294 296 292 291 292 291 290 290 293 293 292 292 292 291 291 291 291 290 291 291 291
291 290 290 289 291 292 292 294 294 294 294 294 293 293 292 292 292 292 292 291 292 291 292 293 291 290 290 292 293 292 293 292 291 290 290 290 290 289 290 290 289 291 291 292
290 289 287 287 289 292 293 293 293 293 293 293 293 293 292 292 292 292 289 288 290 292 292 292 290 289 290 291 294 292 291 290 289 289 289 286 287 289 289 289 288 288 290 292
289 286 286 289 290 291 291 292 292 293 293 293 292 292 291 291 291 291 291 289 290 293 291 290 289 291 291 294 292 291 291 290 290 289 289 289 289 289 289 289 287 290 291 291
288 287 289 289 289 289 290 291 292 293 292 292 291 291 290 291 290 289 287 290 291 292 290 289 292 293 294 292 291 291 291 290 290 290 289 289 289 289 289 289 289 288 291 291
285 288 289 289 289 289 287 289 290 291 291 291 291 291 290 288 288 290 291 292 292 291 290 290 291 293 294 292 291 291 290 290 290 290 289 289 289 289 289 290 289 288 290 291
286 287 288 288 287 286 287 288 288 288 288 289 289 290 290 290 288 288 289 289 291 289 289 292 292 293 292 291 291 290 290 290 290 289 288 288 288 288 289 289 290 290 291 291
287 287 287 288 288 288 288 288 287 287 287 286 287 288 288 289 290 289 288 289 288 289 289 290 291 291 291 291 291 290 290 289 289 289 289 289 288 289 289 288 290 290 290 290
288 289 288 287 289 289 289 289 287 286 287 287 286 287 287 288 289 289 289 288 289 289 289 290 290 291 291 291 290 290 290 290 290 290 289 287 287 289 290 290 288 290 291 291

GFSNGP_sfc_thetae_006.txt.gz
Theta_e
289 290 290 288 287 286 286 287 283 288 291 296 299 299 300 299 294 294 295 298 298 298 297 297 297 297 297 297 296 296 295 293 292 291 290 291 291 291 291 291 291 291 291 292
285 288 287 284 287 289 288 287 289 293 292 300 301 299 299 299 295 295 295 298 300 300 298 297 297 297 297 295 295 295 294 292 292 291 290 290 290 290 290 290 290 290 291 291
278 285 285 280 285 287 289 291 291 287 293 296 293 296 299 298 298 298 298 297 299 300 299 298 297 298 295 294 294 294 292 292 291 291 291 290 290 290 289 289 289 289 289 290
279 281 274 286 292 292 290 291 295 295 295 294 293 295 296 301 303 301 298 298 299 300 300 299 298 297 295 294 293 292 291 291 291 290 290 290 289 288 288 288 288 289 289 290
280 277 283 286 290 293 291 290 294 292 293 293 293 294 295 301 300 301 300 299 301 301 301 297 296 295 294 293 292 291 290 290 290 290 289 289 288 288 288 288 288 288 289 289
278 270 271 283 291 297 296 283 294 295 293 292 292 285 291 299 300 301 299 302 299 298 296 295 294 294 292 291 291 290 290 290 290 289 289 288 288 288 288 288 289 290 290 289
280 278 282 290 293 295 281 285 295 296 294 294 291 293 297 301 301 300 300 297 297 297 296 295 293 293 291 290 290 291 291 291 290 289 289 289 288 288 288 288 288 287 288 288
280 277 272 294 290 284 288 294 296 295 295 296 297 299 300 302 300 295 295 296 296 293 292 292 293 293 290 290 290 291 291 291 289 289 291 291 288 288 287 287 286 286 286 288
281 279 287 290 291 294 294 291 294 294 296 299 298 299 301 299 301 293 294 294 294 292 290 290 291 292 289 289 291 291 290 289 288 289 289 289 287 287 286 286 286 286 287 288
284 287 289 291 292 292 292 292 295 297 296 300 298 300 300 299 301 295 293 292 292 291 290 289 290 291 291 291 292 291 289 288 288 288 288 288 288 288 286 286 286 287 288 288
284 287 289 290 290 290 292 293 294 295 295 298 300 301 300 300 300 301 293 292 293 292 291 290 291 291 292 292 292 290 288 288 288 288 290 289 288 287 287 287 288 287 287 288
282 288 287 287 291 292 292 292 293 293 294 297 301 301 302 301 302 302 293 292 291 291 291 291 292 292 292 293 292 291 289 288 288 288 288 288 287 288 294 296 297 298 298 296
287 291 290 291 292 293 291 292 293 294 295 295 297 300 303 302 304 304 294 291 291 292 292 292 292 292 293 293 293 291 289 289 289 291 289 287 287 286 286 290 295 296 298 298
290 290 288 290 289 292 293 293 295 295 296 297 298 299 302 303 304 304 296 294 293 293 292 292 292 292 293 294 292 291 290 295 289 289 288 288 287 287 287 286 286 287 293 296
288 290 290 292 292 292 293 293 293 293 294 295 297 298 301 302 303 300 297 294 294 293 292 292 292 291 294 294 292 291 291 291 290 289 289 289 288 287 287 287 287 288 292 293
291 292 293 292 291 291 290 290 290 291 292 294 295 296 297 300 302 301 296 295 293 291 291 292 292 293 295 293 292 291 292 295 292 290 289 288 287 287 287 289 290 290 290 288
289 288 289 289 289 289 289 290 291 291 292 293 294 296 296 296 298 295 294 295 294 293 293 292 292 295 294 293 292 292 291 291 293 289 289 288 289 292 292 291 290 291 289 290
291 291 289 289 289 288 288 289 290 291 292 293 295 295 295 294 295 293 293 291 291 291 292 293 294 293 292 292 292 291 289 289 290 290 291 291 290 292 291 290 290 290 289 289
291 290 291 291 290 288 287 287 289 292 293 294 294 293 294 294 293 292 292 291 290 290 291 294 296 292 291 293 292 290 290 291 291 290 291 291 290 290 290 290 290 288 290 291
289 290 291 290 289 287 286 288 291 291 291 292 292 293 293 291 292 292 292 291 292 292 294 294 291 290 291 293 294 291 292 290 289 289 289 289 288 287 289 290 290 288 288 290
289 290 289 289 286 288 289 290 290 290 291 292 293 293 292 292 293 293 291 290 291 294 292 293 290 290 290 293 293 291 290 289 289 288 289 288 288 287 288 289 289 288 287 289
289 288 288 287 288 288 289 289 289 290 292 293 293 292 291 291 292 292 292 290 291 294 291 290 290 292 292 295 291 290 290 290 289 289 289 288 288 288 289 289 288 288 289 289
287 287 287 288 288 288 288 288 289 291 292 293 292 291 291 291 291 288 286 291 291 292 289 289 292 294 295 291 291 290 290 290 289 289 289 289 289 288 288 289 289 289 287 289
285 284 287 289 288 288 285 286 287 289 290 290 290 290 290 288 289 291 291 292 293 291 289 291 293 295 294 290 290 290 290 289 289 289 289 289 288 289 289 288 289 290 289 289
286 286 288 287 286 286 285 285 286 285 286 287 288 289 289 290 289 289 289 290 292 290 289 293 294 294 291 291 291 290 290 289 289 289 288 288 286 288 288 288 288 289 289 289
287 287 287 287 286 287 286 286 285 285 286 285 286 288 289 289 289 288 289 290 289 290 289 289 290 291 291 291 291 290 290 289 289 289 288 286 285 285 286 289 288 288 290 290
288 288 288 287 288 288 288 287 286 285 286 286 285 287 288 288 289 288 289 288 288 289 289 289 289 290 291 291 291 290 290 289 290 289 286 285 285 285 286 288 289 289 289 290

GFSNGP_sfc_thetae_009.txt.gz
Theta_e
285 286 287 286 287 288 285 285 281 283 284 287 291 294 294 296 297 296 298 299 297 297 297 296 296 295 295 295 296 296 295 294 294 293 292 291 290 290 290 290 290 290 290 291
281 284 284 283 285 286 286 286 285 286 285 292 294 297 295 294 295 296 297 299 299 299 299 296 297 296 296 295 295 296 295 294 294 292 291 291 290 290 289 289 289 289 289 290
277 282 282 278 282 283 285 287 287 284 290 294 293 293 292 292 295 296 297 299 299 299 299 299 298 298 296 296 296 295 295 294 292 292 291 290 290 289 289 288 288 288 288 289
278 280 273 283 288 289 287 289 291 293 293 293 292 294 294 295 297 296 298 300 301 301 300 300 299 298 298 296 295 295 294 292 292 292 291 290 289 288 287 287 288 287 288 288
274 275 280 283 286 286 285 286 293 286 291 294 295 293 293 297 298 298 300 302 302 303 302 300 297 298 296 294 294 294 292 291 291 291 290 289 288 287 287 287 287 287 288 288
278 274 271 282 287 291 290 280 291 290 291 291 292 285 289 297 299 300 301 301 301 298 298 299 297 296 294 293 293 292 291 291 291 291 290 289 288 287 287 287 288 289 289 288
275 272 278 285 289 292 278 280 289 291 292 292 290 292 296 299 300 302 300 301 300 297 298 298 295 295 293 292 291 293 292 291 290 290 289 289 287 287 287 287 287 287 287 287
274 271 271 290 289 283 288 292 292 291 291 292 294 296 297 299 301 300 299 300 297 294 294 294 294 294 291 291 291 290 290 290 289 288 290 290 287 287 287 286 285 285 285 286
279 279 287 290 289 292 292 291 291 291 293 293 292 293 297 298 299 299 299 300 295 290 290 291 293 293 290 288 290 290 290 289 288 288 289 288 287 287 286 285 285 285 285 285
283 285 287 289 291 292 292 290 291 293 292 293 292 293 293 295 300 300 301 301 293 291 289 289 290 291 290 290 291 291 289 288 288 288 288 288 289 288 286 286 285 285 286 286
284 286 288 289 289 289 291 292 292 293 293 293 292 292 294 297 300 301 301 302 294 292 291 290 290 290 292 292 292 290 289 288 289 290 290 288 288 287 287 287 288 286 286 287
281 287 287 288 291 292 290 291 291 291 291 292 293 293 294 295 301 302 302 302 298 293 292 291 291 291 292 293 292 291 289 289 290 289 290 289 288 288 295 296 298 298 298 295
288 291 290 291 291 291 290 291 292 292 293 292 293 294 297 297 300 303 304 303 294 291 292 291 291 292 293 293 293 291 290 289 290 290 289 289 289 288 287 290 295 296 297 297
289 288 286 288 288 291 292 292 294 293 293 293 293 294 296 296 300 303 302 303 298 292 291 291 291 291 293 294 293 291 291 295 291 290 290 289 289 288 288 287 285 286 293 295
288 290 289 291 291 292 293 292 290 290 291 291 292 293 294 294 295 298 303 305 300 293 291 291 291 291 295 295 292 291 292 291 291 291 290 290 289 288 287 287 286 287 288 292
292 291 291 289 289 290 290 289 289 289 289 290 290 292 294 295 296 296 300 299 294 293 292 292 291 293 294 293 292 291 292 294 292 291 291 289 288 288 287 287 288 291 290 289
288 286 287 287 288 288 289 289 289 288 288 288 289 292 293 294 295 295 298 298 297 296 294 293 292 294 294 293 292 292 293 293 293 290 289 289 289 290 291 288 289 288 291 292
289 289 289 288 288 288 289 289 289 287 286 287 289 292 293 293 292 293 295 297 296 294 293 292 293 293 293 293 292 291 289 289 290 290 291 291 290 290 288 287 287 289 290 290
290 289 289 290 290 289 288 288 287 287 287 288 291 291 291 291 292 293 294 292 291 290 290 293 296 293 291 293 291 290 290 291 291 290 290 290 289 288 288 288 289 289 287 288
288 289 291 291 290 288 287 287 287 288 289 289 290 290 290 291 293 293 292 291 291 292 294 293 292 291 292 294 293 291 292 290 289 288 289 288 287 285 285 288 287 289 288 287
288 290 289 287 286 287 287 289 289 288 289 289 289 289 290 292 292 292 290 289 293 294 293 293 291 291 292 293 292 291 290 289 288 288 288 287 287 286 286 286 288 289 287 287
288 288 286 285 285 286 288 289 289 289 288 289 290 292 292 290 292 292 293 292 293 295 292 291 291 293 294 295 291 290 289 289 289 288 288 288 286 285 287 288 288 289 288 286
289 286 285 286 287 287 288 288 287 288 290 291 292 291 291 291 291 290 288 293 292 292 290 290 293 295 296 291 290 289 289 289 289 289 288 288 287 287 288 288 289 289 289 287
286 286 286 288 288 287 285 285 286 286 287 287 289 291 290 287 288 291 292 293 294 291 290 292 294 296 293 290 290 289 289 289 289 287 289 289 286 288 288 287 286 288 287 287
285 287 288 286 285 285 285 285 285 285 286 285 286 288 289 290 288 290 291 291 293 291 290 295 295 295 290 290 290 290 289 289 289 289 287 286 285 285 286 287 287 287 288 289
287 287 286 287 286 286 286 286 285 286 286 285 286 287 288 289 290 289 289 290 290 291 289 289 291 291 290 290 290 290 289 289 288 287 288 285 284 284 284 287 288 289 288 289
288 289 288 287 288 288 288 287 286 285 286 286 285 287 288 288 289 289 289 288 288 288 288 288 289 290 290 291 290 290 289 289 289 288 287 286 285 284 284 287 288 290 289 288

GFSNGP_sfc_thetae_012.txt.gz
Theta_e
283 284 284 283 282 283 281 281 278 281 282 286 290 291 292 295 295 295 294 297 298 299 300 299 294 293 294 295 295 294 294 293 293 293 293 292 291 290 290 289 290 290 289 290
280 283 282 280 282 283 283 283 282 283 283 290 294 295 295 294 295 293 293 297 298 300 301 301 298 296 294 294 294 295 294 293 294 293 292 291 291 290 289 289 289 289 288 289
275 281 280 276 281 283 284 286 285 281 286 288 288 289 292 294 294 294 294 296 298 300 301 302 302 299 296 295 296 294 294 294 293 293 292 291 291 290 289 288 287 288 288 288
276 277 268 279 286 286 285 286 289 288 288 290 289 291 293 296 295 294 296 298 299 301 301 302 301 301 298 296 294 294 294 294 293 293 292 291 290 289 287 287 287 287 287 288
272 271 277 280 285 284 282 282 290 288 289 290 292 293 292 296 295 296 297 299 301 302 301 302 299 298 298 295 295 294 294 293 293 293 291 290 289 288 287 287 286 287 288 287
275 272 269 279 285 288 289 278 289 289 288 289 290 283 287 294 296 297 298 300 302 301 301 301 297 298 297 295 294 294 294 294 293 293 291 290 289 288 286 287 288 288 288 287
275 272 275 283 286 290 276 278 289 289 289 289 286 289 292 295 294 296 298 301 301 301 300 297 295 297 297 295 293 295 295 293 292 292 291 290 288 288 287 287 287 287 288 287
273 273 270 287 287 282 286 290 290 289 290 289 290 291 292 293 293 295 295 298 301 301 299 293 292 295 296 294 295 294 293 291 291 290 291 290 288 287 287 287 287 286 286 286
279 278 285 288 288 291 291 289 289 289 290 290 290 290 292 292 292 293 295 300 302 301 295 290 291 294 293 292 292 291 291 290 289 289 289 289 288 287 286 286 286 285 285 285
281 284 285 288 291 292 291 290 291 291 291 291 290 291 291 292 292 294 296 300 302 301 296 289 289 290 291 291 291 290 289 288 289 288 288 289 289 289 288 286 285 286 286 285
283 285 287 287 290 291 291 292 291 292 291 291 291 290 291 292 293 295 297 302 302 301 296 292 290 290 290 290 290 289 288 288 289 291 289 289 289 289 289 287 289 286 286 286
280 287 287 288 291 292 290 289 290 290 290 292 292 291 292 292 294 295 296 302 300 300 297 293 291 290 291 291 291 289 288 289 290 290 290 290 289 289 294 293 296 296 296 291
287 290 289 289 290 290 289 290 291 292 292 291 292 292 292 292 293 296 296 301 301 300 296 294 292 292 292 292 292 291 290 290 291 291 290 289 289 288 287 292 298 298 297 297
288 288 286 287 287 290 291 292 293 292 292 291 291 291 291 291 293 294 295 297 302 300 296 292 294 294 294 295 294 292 292 295 291 290 290 289 289 288 288 287 287 287 293 295
289 291 291 291 289 289 290 291 289 289 289 289 290 289 289 288 290 293 296 297 300 297 295 292 291 292 295 296 294 292 293 292 291 291 290 290 289 288 288 288 288 287 287 292
291 291 291 288 288 288 288 288 288 288 289 289 289 288 288 288 290 293 295 296 297 298 295 293 291 295 298 296 294 292 292 293 292 290 290 288 288 288 288 288 288 288 288 289
288 286 286 285 286 286 287 289 289 288 288 288 288 288 287 287 289 292 294 295 298 297 294 293 292 295 296 295 293 292 292 293 293 289 288 288 289 289 290 290 289 288 287 290
290 289 287 286 286 287 287 289 288 288 287 288 288 287 286 287 288 291 292 293 295 297 295 296 295 293 293 293 293 291 290 290 289 288 289 290 290 289 288 287 288 287 288 289
287 286 286 287 287 288 289 287 287 287 287 287 287 287 288 289 290 290 291 292 293 292 293 294 297 294 293 295 291 290 289 289 289 289 290 291 288 288 288 287 287 287 288 287
285 286 286 287 289 289 286 286 287 287 288 289 289 288 288 289 290 291 292 292 291 292 293 295 293 292 293 294 293 291 291 290 289 289 289 288 287 286 286 288 287 286 287 287
285 285 286 288 287 287 287 287 288 287 288 288 288 287 287 288 290 292 290 289 292 294 294 294 292 292 292 293 292 290 289 288 288 287 288 287 287 286 286 285 286 287 288 287
286 286 288 287 286 286 288 288 288 287 287 287 288 289 289 289 291 291 292 291 293 294 293 292 292 294 293 294 290 288 289 288 288 288 288 287 286 285 284 288 288 289 289 286
287 287 286 286 287 287 288 287 286 286 285 286 290 291 291 292 292 290 288 293 292 293 291 292 295 297 295 290 289 289 288 288 287 287 287 286 286 285 285 286 286 288 289 288
285 286 286 288 288 287 285 285 286 286 286 286 286 288 289 287 288 292 293 294 294 292 291 294 295 296 292 290 289 288 288 288 288 286 287 288 285 285 285 286 286 287 286 289
286 287 288 286 285 285 285 286 286 286 286 286 286 287 288 290 288 290 291 292 293 292 291 296 297 294 290 290 289 288 289 289 288 288 286 285 284 284 286 287 287 287 288 288
287 286 286 286 286 287 287 287 285 286 286 285 286 287 288 289 290 290 290 291 290 291 290 291 291 290 290 290 290 289 287 287 287 286 286 285 284 283 283 286 287 288 289 288
288 289 287 287 287 287 287 287 285 285 286 286 285 287 287 288 289 288 289 288 288 288 288 289 289 290 290 290 289 288 288 288 289 287 286 284 284 283 285 288 287 288 289 288

GFSNGP_sfc_thetae_015.txt.gz
Theta_e
283 284 284 283 282 283 281 282 278 281 281 286 288 289 290 292 294 295 297 298 299 299 301 302 304 305 305 299 298 299 297 298 298 299 299 299 299 298 298 297 297 297 297 297
280 283 283 280 283 283 283 283 283 284 283 290 290 292 291 292 293 294 296 297 298 299 300 302 303 304 304 304 299 298 297 297 299 298 298 298 298 297 297 296 296 296 296 296
275 281 280 277 281 282 282 284 284 280 286 290 289 290 291 292 293 294 296 297 298 298 300 301 303 304 304 304 303 298 297 297 298 297 297 297 297 296 296 296 295 295 295 295
276 278 271 281 286 285 284 286 287 287 289 290 290 291 293 295 293 295 295 296 297 298 299 302 305 304 305 304 300 299 296 297 297 297 296 296 296 296 296 296 295 295 295 295
274 274 279 281 284 283 282 282 288 287 288 289 291 291 291 294 295 295 295 296 297 299 300 303 304 304 304 300 298 299 296 297 297 297 296 296 295 295 295 295 295 294 295 295
278 272 270 280 285 289 289 278 288 289 288 289 290 283 287 293 294 295 296 297 297 299 299 303 304 305 299 296 296 298 297 297 297 297 296 295 296 295 295 295 294 294 294 295
276 275 278 284 287 291 277 280 289 290 290 290 287 290 292 294 294 295 296 296 297 298 300 303 304 301 295 293 293 298 299 298 297 297 296 297 296 295 294 294 294 294 294 294
276 273 271 287 287 281 286 290 290 291 291 290 291 292 292 293 294 294 295 295 297 298 302 303 303 298 292 291 294 300 299 298 296 296 296 295 295 294 294 294 293 293 293 293
280 279 286 289 288 291 292 290 291 291 292 292 291 291 292 292 293 294 294 296 297 299 303 303 301 295 291 292 297 299 298 296 295 295 295 294 293 293 292 293 293 292 292 292
281 285 286 288 290 292 292 291 293 293 292 292 291 292 292 292 293 294 295 295 297 300 301 300 298 293 292 292 295 296 295 293 293 293 292 293 293 293 292 292 292 291 291 291
283 285 287 289 291 292 292 292 292 292 292 292 292 292 292 292 293 293 294 295 297 299 301 299 296 293 292 292 293 293 292 292 291 293 292 292 293 293 293 294 294 292 292 292
281 288 288 288 292 293 291 290 291 290 291 293 293 291 292 292 293 293 293 295 296 299 301 297 295 294 294 293 292 291 290 291 292 291 292 292 292 293 296 295 296 296 296 294
288 291 291 291 292 292 290 291 291 290 291 291 292 292 292 291 292 293 292 293 295 296 299 297 296 295 296 294 293 292 292 291 292 292 292 292 293 293 291 296 298 298 298 298
290 291 288 289 288 292 292 291 292 291 291 292 292 292 292 291 291 290 290 292 294 296 297 298 296 295 297 296 296 295 295 295 293 293 293 293 293 292 292 292 292 292 296 297
290 291 291 291 292 292 290 289 288 288 289 290 291 290 290 289 290 290 290 291 293 296 297 296 294 294 297 297 295 294 294 294 293 293 293 292 291 291 291 291 291 291 292 295
290 290 290 288 287 288 287 287 286 287 288 289 289 289 289 289 290 290 290 290 291 293 296 297 293 295 297 296 295 294 294 295 293 292 292 291 291 290 290 290 291 291 292 292
285 284 285 285 285 285 285 286 287 287 288 289 288 288 288 288 288 288 289 291 294 295 295 297 295 297 297 296 295 294 294 295 294 292 291 291 290 291 292 291 291 292 292 292
287 287 286 285 285 284 285 286 287 289 287 287 287 287 287 287 287 288 289 290 292 292 294 296 296 297 296 296 295 294 293 293 292 291 291 291 291 293 292 292 291 290 291 291
286 285 285 285 286 286 286 287 288 287 287 287 287 287 288 288 288 289 289 290 291 291 294 295 297 295 294 295 294 293 292 291 291 291 292 293 292 291 290 290 290 291 290 290
285 286 286 286 287 287 288 287 287 287 288 288 288 287 287 287 288 288 289 290 292 294 296 296 294 294 295 296 294 292 292 292 291 291 291 290 290 289 290 289 290 290 290 289
285 286 286 287 286 287 287 288 288 286 287 287 286 285 286 288 289 289 288 289 292 295 295 296 294 294 294 294 292 292 292 291 290 290 289 289 289 289 289 289 289 289 289 288
286 287 286 285 286 287 288 288 287 287 286 286 286 288 291 289 289 290 292 292 294 295 294 293 293 295 294 294 292 291 290 290 290 290 289 289 288 288 288 289 289 289 290 289
287 286 287 286 286 286 287 287 287 286 285 285 285 286 288 290 292 290 288 293 293 294 293 294 296 296 294 291 291 290 290 289 289 289 289 289 288 288 288 288 288 288 289 289
286 287 287 289 288 287 285 286 286 287 286 286 286 286 287 287 287 291 293 294 295 294 294 295 295 294 292 291 291 290 290 290 290 289 289 288 288 288 288 287 286 287 288 289
287 287 287 286 285 285 286 286 286 286 286 286 287 287 288 289 288 289 291 292 294 293 294 296 295 293 290 291 290 290 290 290 289 289 288 288 288 288 288 287 288 288 288 289
287 286 287 287 286 286 287 287 285 286 286 286 286 287 288 289 289 289 290 291 291 292 291 291 291 291 291 291 290 290 289 290 289 289 288 287 287 287 287 287 287 288 289 290
287 289 287 287 287 287 287 287 285 284 286 285 285 287 288 288 289 289 289 288 289 289 289 290 291 291 291 291 290 289 289 290 289 289 288 287 287 287 286 287 287 288 289 289